sat.trackr.live / text

‹ back to catalog

YAOGAN-39 05B

NORAD 58558 · 2023-194B

PAYLOAD ACTIVE UNKNOWN

§ Identity

Operator
Country
PRC
Launch date
2023-12-10
Launch site
XICLF
Launch vehicle
Mass (kg)
RCS (m²)

External: N2YO · Heavens-Above · Gunter

§ Orbital elements

Epoch: 2026-05-25T05:13:19.336224Z

Period
94.90 min
Inclination
34.9916°
Eccentricity
0.0009322
Mean motion
15.17425669 rev/d
Perigee alt
507.2 km
Apogee alt
520.0 km
Semi-major
6,891.8 km
B*
2.2061e-4
RAAN
224.4564°
Arg perigee
114.5984°
Mean anomaly
245.5701°
Rev number
13,660

§ Raw data

YAOGAN-39 05B1 58558U 23194B   26145.21758491  .00004488  00000+0  22061-3 0  99922 58558  34.9916 224.4564 0009322 114.5984 245.5701 15.17425669136606

JSON: /api/v1/satellites/58558 · /tle

For live sub-satellite position, see the globe view (requires WebGL).

§ Visibility from observer

Set your observer location to see the next 7 days of passes ≥ 10°. The values pass through the URL so the page stays shareable.

No JS? Fill the form by hand. The geolocation button needs JavaScript.